When you browse on this site, cookies collect data to enhance your experience and personalize the content and advertising you see.
Visit our Privacy Policy to learn more. By continuing to use the site, you agree to this use of cookies and data.
  • en France
  • Liste des pays
  • À 7 jours
  • Température de l'eau
  • Carte météo
  • Widgets météo
  • user-avatar
    Se connecter

    Météo par heure à Buraydah

    Ce jour, 18 Septembre, Mercredi

    Heure Température Précipitation Vent Pression Humidité
    00:00 +33°C° 0 mm 3 m/s 704 mmHg 9%
    01:00 +31°C° 0 mm 2 m/s 703 mmHg 10%
    02:00 +30°C° 0 mm 2 m/s 703 mmHg 11%
    03:00 +29°C° 0 mm 2 m/s 703 mmHg 11%
    04:00 +28°C° 0 mm 1 m/s 703 mmHg 12%
    05:00 +28°C° 0 mm 1 m/s 703 mmHg 12%
    06:00 +27°C° 0 mm 1 m/s 704 mmHg 13%
    07:00 +30°C° 0 mm 1 m/s 704 mmHg 11%
    08:00 +35°C° 0 mm 2 m/s 705 mmHg 9%
    09:00 +39°C° 0 mm 3 m/s 706 mmHg 7%
    10:00 +41°C° 0 mm 4 m/s 706 mmHg 7%
    11:00 +43°C° 0 mm 5 m/s 706 mmHg 7%
    12:00 +46°C° 0 mm 6 m/s 706 mmHg 7%
    13:00 +46°C° 0 mm 6 m/s 705 mmHg 7%
    14:00 +46°C° 0 mm 7 m/s 705 mmHg 7%
    15:00 +47°C° 0 mm 7 m/s 704 mmHg 6%
    16:00 +45°C° 0 mm 6 m/s 704 mmHg 7%
    17:00 +42°C° 0 mm 6 m/s 704 mmHg 8%
    18:00 +40°C° 0 mm 5 m/s 704 mmHg 8%
    19:00 +38°C° 0 mm 4 m/s 705 mmHg 8%
    20:00 +36°C° 0 mm 4 m/s 705 mmHg 8%
    21:00 +34°C° 0 mm 4 m/s 705 mmHg 8%
    22:00 +33°C° 0 mm 4 m/s 705 mmHg 9%
    23:00 +32°C° 0 mm 4 m/s 705 mmHg 9%

    Demain, 19 Septembre, Jeudi

    Heure Température Précipitation Vent Pression Humidité
    00:00 +32°C° 0 mm 4 m/s 705 mmHg 10%
    01:00 +30°C° 0 mm 4 m/s 705 mmHg 12%
    02:00 +29°C° 0 mm 4 m/s 704 mmHg 13%
    03:00 +29°C° 0 mm 4 m/s 704 mmHg 15%
    04:00 +28°C° 0 mm 4 m/s 705 mmHg 17%
    05:00 +28°C° 0 mm 3 m/s 705 mmHg 19%
    06:00 +27°C° 0 mm 3 m/s 706 mmHg 21%
    07:00 +30°C° 0 mm 4 m/s 706 mmHg 18%
    08:00 +34°C° 0 mm 4 m/s 707 mmHg 15%
    09:00 +37°C° 0 mm 5 m/s 708 mmHg 13%
    10:00 +40°C° 0 mm 5 m/s 707 mmHg 11%
    11:00 +42°C° 0 mm 6 m/s 707 mmHg 10%
    12:00 +46°C° 0 mm 6 m/s 707 mmHg 8%
    13:00 +46°C° 0 mm 6 m/s 707 mmHg 8%
    14:00 +46°C° 0 mm 5 m/s 706 mmHg 7%
    15:00 +47°C° 0 mm 5 m/s 705 mmHg 6%
    16:00 +45°C° 0 mm 5 m/s 705 mmHg 7%
    17:00 +42°C° 0 mm 5 m/s 705 mmHg 8%
    18:00 +40°C° 0 mm 4 m/s 705 mmHg 9%
    19:00 +38°C° 0 mm 4 m/s 705 mmHg 9%
    20:00 +36°C° 0 mm 4 m/s 706 mmHg 10%
    21:00 +35°C° 0 mm 4 m/s 706 mmHg 11%
    22:00 +34°C° 0 mm 4 m/s 706 mmHg 12%
    23:00 +33°C° 0 mm 4 m/s 706 mmHg 14%

    Après-demain, 20 Septembre, Vendredi

    Heure Température Précipitation Vent Pression Humidité
    00:00 +32°C° 0 mm 4 m/s 705 mmHg 16%
    01:00 +30°C° 0 mm 4 m/s 705 mmHg 17%
    02:00 +29°C° 0 mm 3 m/s 705 mmHg 18%
    03:00 +28°C° 0 mm 3 m/s 705 mmHg 19%
    04:00 +28°C° 0 mm 2 m/s 705 mmHg 19%
    05:00 +27°C° 0 mm 2 m/s 705 mmHg 19%
    06:00 +27°C° 0 mm 2 m/s 705 mmHg 20%
    07:00 +30°C° 0 mm 2 m/s 705 mmHg 17%
    08:00 +34°C° 0 mm 2 m/s 706 mmHg 14%
    09:00 +37°C° 0 mm 2 m/s 707 mmHg 11%
    10:00 +39°C° 0 mm 3 m/s 706 mmHg 10%
    11:00 +42°C° 0 mm 3 m/s 706 mmHg 9%
    12:00 +44°C° 0 mm 4 m/s 706 mmHg 7%
    13:00 +44°C° 0 mm 4 m/s 705 mmHg 7%
    14:00 +45°C° 0 mm 4 m/s 705 mmHg 6%
    15:00 +46°C° 0 mm 5 m/s 704 mmHg 6%
    16:00 +43°C° 0 mm 4 m/s 704 mmHg 7%
    17:00 +42°C° 0 mm 4 m/s 704 mmHg 8%
    18:00 +40°C° 0 mm 4 m/s 704 mmHg 9%
    19:00 +37°C° 0 mm 4 m/s 704 mmHg 10%
    20:00 +36°C° 0 mm 3 m/s 705 mmHg 12%
    21:00 +35°C° 0 mm 3 m/s 705 mmHg 13%
    22:00 +34°C° 0 mm 3 m/s 704 mmHg 13%
    23:00 +32°C° 0 mm 2 m/s 704 mmHg 14%

    21 Septembre, Samedi

    Heure Température Précipitation Vent Pression Humidité
    00:00 +31°C° 0 mm 2 m/s 704 mmHg 15%
    01:00 +30°C° 0 mm 2 m/s 704 mmHg 16%
    02:00 +29°C° 0 mm 2 m/s 703 mmHg 17%
    03:00 +28°C° 0 mm 1 m/s 703 mmHg 18%
    04:00 +28°C° 0 mm 1 m/s 703 mmHg 19%
    05:00 +27°C° 0 mm 1 m/s 703 mmHg 20%
    06:00 +26°C° 0 mm 1 m/s 703 mmHg 21%
    07:00 +30°C° 0 mm 1 m/s 704 mmHg 17%
    08:00 +34°C° 0 mm 1 m/s 704 mmHg 14%
    09:00 +38°C° 0 mm 2 m/s 705 mmHg 11%
    10:00 +40°C° 0 mm 1 m/s 705 mmHg 10%
    11:00 +41°C° 0 mm 1 m/s 705 mmHg 9%
    12:00 +40°C° 0 mm 0 m/s 704 mmHg 8%
    13:00 +43°C° 0 mm 2 m/s 704 mmHg 7%
    14:00 +45°C° 0 mm 3 m/s 704 mmHg 7%
    15:00 +47°C° 0 mm 4 m/s 703 mmHg 6%
    16:00 +44°C° 0 mm 4 m/s 703 mmHg 7%
    17:00 +42°C° 0 mm 3 m/s 702 mmHg 8%
    18:00 +39°C° 0 mm 3 m/s 702 mmHg 8%
    19:00 +37°C° 0 mm 3 m/s 702 mmHg 9%
    20:00 +36°C° 0 mm 2 m/s 703 mmHg 10%
    21:00 +35°C° 0 mm 2 m/s 703 mmHg 11%
    22:00 +34°C° 0 mm 2 m/s 703 mmHg 12%
    23:00 +32°C° 0 mm 2 m/s 702 mmHg 12%

    22 Septembre, Dimanche

    Heure Température Précipitation Vent Pression Humidité
    00:00 +33°C° 0 mm 3 m/s 702 mmHg 12%
    01:00 +31°C° 0 mm 2 m/s 702 mmHg 13%
    02:00 +30°C° 0 mm 2 m/s 702 mmHg 14%
    03:00 +29°C° 0 mm 2 m/s 702 mmHg 16%
    04:00 +28°C° 0 mm 1 m/s 702 mmHg 17%
    05:00 +27°C° 0 mm 1 m/s 702 mmHg 18%
    06:00 +24°C° 0 mm 0 m/s 702 mmHg 19%
    07:00 +30°C° 0 mm 1 m/s 703 mmHg 16%
    08:00 +34°C° 0 mm 1 m/s 704 mmHg 12%
    09:00 +38°C° 0 mm 2 m/s 705 mmHg 9%
    10:00 +40°C° 0 mm 2 m/s 705 mmHg 8%
    11:00 +42°C° 0 mm 2 m/s 704 mmHg 8%
    12:00 +45°C° 0 mm 2 m/s 704 mmHg 7%
    13:00 +45°C° 0 mm 3 m/s 704 mmHg 6%
    14:00 +46°C° 0 mm 3 m/s 703 mmHg 6%
    15:00 +47°C° 0 mm 4 m/s 703 mmHg 6%
    16:00 +44°C° 0 mm 4 m/s 703 mmHg 6%
    17:00 +42°C° 0 mm 4 m/s 703 mmHg 7%
    18:00 +41°C° 0 mm 4 m/s 703 mmHg 8%
    19:00 +38°C° 0 mm 4 m/s 703 mmHg 9%
    20:00 +37°C° 0 mm 4 m/s 704 mmHg 10%
    21:00 +35°C° 0 mm 4 m/s 704 mmHg 11%
    22:00 +35°C° 0 mm 4 m/s 704 mmHg 12%
    23:00 +34°C° 0 mm 4 m/s 704 mmHg 12%

    23 Septembre, Lundi

    Heure Température Précipitation Vent Pression Humidité
    00:00 +33°C° 0 mm 5 m/s 704 mmHg 13%
    01:00 +33°C° 0 mm 4 m/s 703 mmHg 14%
    02:00 +32°C° 0 mm 4 m/s 703 mmHg 15%
    03:00 +30°C° 0 mm 3 m/s 703 mmHg 16%
    04:00 +29°C° 0 mm 3 m/s 703 mmHg 17%
    05:00 +28°C° 0 mm 2 m/s 703 mmHg 18%
    06:00 +27°C° 0 mm 1 m/s 703 mmHg 19%
    07:00 +30°C° 0 mm 2 m/s 704 mmHg 16%
    08:00 +34°C° 0 mm 2 m/s 705 mmHg 13%
    09:00 +38°C° 0 mm 2 m/s 706 mmHg 10%
    10:00 +41°C° 0 mm 4 m/s 706 mmHg 9%
    11:00 +43°C° 0 mm 5 m/s 706 mmHg 8%
    12:00 +47°C° 0 mm 6 m/s 706 mmHg 7%
    13:00 +47°C° 0 mm 6 m/s 705 mmHg 6%
    14:00 +47°C° 0 mm 5 m/s 705 mmHg 6%
    15:00 +47°C° 0 mm 5 m/s 704 mmHg 6%
    16:00 +44°C° 0 mm 4 m/s 704 mmHg 7%
    17:00 +42°C° 0 mm 3 m/s 703 mmHg 8%
    18:00 +38°C° 0 mm 3 m/s 703 mmHg 9%
    19:00 +37°C° 0 mm 3 m/s 703 mmHg 9%
    20:00 +36°C° 0 mm 3 m/s 704 mmHg 10%
    21:00 +35°C° 0 mm 3 m/s 704 mmHg 11%
    22:00 +34°C° 0 mm 3 m/s 704 mmHg 12%
    23:00 +33°C° 0 mm 3 m/s 704 mmHg 13%
    Voir plus